Simultaneous Nadir Overpasses (SNOs) Predictions

Prediction of SNOs between AURA and NPP Satellite Orbit:

Table of predicted SNOs for the next 14.0 days since TLE Epoch: 1/23/2016
Index Date (AURA) Time (AURA) Lat,Lon (AURA) SZA (AURA ) Date (NPP) Time (NPP) Lat,Lon (NPP) SZA (NPP ) Distance(km) Time Diff (sec)
1 01/25/2016 10:35:49 -79.35, 96.94 68.14 01/25/2016 10:35:48 -79.35, 96.85 68.12 1.80 1
2 01/25/2016 11:23:08 81.78, -48.92 104.91 01/25/2016 11:24:21 81.20, -49.31 104.62 64.74 73
3 01/28/2016 02:02:59 79.15, 43.86 111.52 01/28/2016 02:02:01 79.15, 43.84 111.57 0.47 58
4 01/28/2016 02:52:18 -79.47,-146.40 68.95 01/28/2016 02:52:37 -79.47,-146.44 68.95 0.99 19
5 01/30/2016 18:19:25 79.33, 160.91 110.58 01/30/2016 18:18:47 79.34, 161.02 110.59 2.17 38
6 01/30/2016 19:08:46 -79.57, -29.80 69.78 01/30/2016 19:09:25 -79.58, -29.72 69.82 1.72 39
7 02/02/2016 10:35:56 79.35, -83.12 109.84 02/02/2016 10:35:39 79.35, -83.12 109.85 0.30 17
8 02/02/2016 11:25:16 -79.63, 86.45 70.58 02/02/2016 11:26:16 -79.63, 86.45 70.62 0.13 60
9 02/05/2016 02:03:06 -79.17,-136.05 70.66 02/05/2016 02:01:52 -79.17,-135.98 70.62 1.78 74




NCC Satellite Simultaneous Nadir Overpasses (SNOs) Prediction Service
